Tracking 33068 objects as of 24-Jan-2026
HD Live streaming from Space Station
objects crossing your sky now

STARLINK-33823

Track STARLINK-33823 now!
10-day predictions
STARLINK-33823 is classified as:


NORAD ID: 63661
Int'l Code: 2025-083AD
Perigee: 490.0 km
Apogee: 490.1 km
Inclination: 43.0 °
Period: 94.3 minutes
Semi major axis: 6861 km
RCS: Unknown
Launch date: April 25, 2025
Source: United States (US)
Launch site: AIR FORCE EASTERN TEST RANGE (AFETR)
Your satellite tracking list
Your tracking list is empty




NASA's NSSDC Master Catalog

Two Line Element Set (TLE):
1 63661U 25083AD  26023.95256845  .00037348  00000-0  13577-2 0  9997
2 63661  43.0032 257.9654 0000059 101.3973 258.6885 15.27633513 43254
Source of the keplerian elements: AFSPC